Time,TemperatureF,DewpointF,PressureIn,WindDirection,WindDirectionDegrees,WindSpeedMPH,WindSpeedGustMPH,Humidity,HourlyPrecipIn,Conditions,Clouds,dailyrainin,SoftwareType,DateUTC
2013-06-05 00:02:00,80.0,47.0,29.85,SSW,205,16.0,24.0,32,0.00,,,0.00,,2013-06-05 07:02:00,
2013-06-05 00:12:00,80.0,47.0,29.85,SSW,205,16.0,24.0,32,0.00,,,0.00,,2013-06-05 07:12:00,
2013-06-05 00:22:00,80.0,48.0,29.85,SSW,205,16.0,24.0,33,0.00,,,0.00,,2013-06-05 07:22:00,
2013-06-05 00:32:00,79.0,47.0,29.85,SSW,209,17.0,24.0,33,0.00,,,0.00,,2013-06-05 07:32:00,
2013-06-05 00:42:00,79.0,47.0,29.85,SSW,209,17.0,24.0,33,0.00,,,0.00,,2013-06-05 07:42:00,
2013-06-05 00:52:00,79.0,48.0,29.85,SSW,213,13.0,23.0,34,0.00,,,0.00,,2013-06-05 07:52:00,
2013-06-05 01:01:00,79.0,49.0,29.86,SSW,212,14.0,21.0,35,0.00,,,0.00,,2013-06-05 08:01:00,
2013-06-05 01:12:00,79.0,49.0,29.86,SSW,212,14.0,21.0,35,0.00,,,0.00,,2013-06-05 08:12:00,
2013-06-05 01:22:00,78.0,48.0,29.86,SW,215,14.0,21.0,35,0.00,,,0.00,,2013-06-05 08:22:00,
2013-06-05 01:32:00,78.0,48.0,29.86,SW,226,13.0,20.0,35,0.00,,,0.00,,2013-06-05 08:32:00,
2013-06-05 01:42:00,78.0,48.0,29.86,SW,226,13.0,20.0,35,0.00,,,0.00,,2013-06-05 08:42:00,
2013-06-05 01:52:00,78.0,48.0,29.86,SSW,200,17.0,21.0,35,0.00,,,0.00,,2013-06-05 08:52:00,
2013-06-05 02:01:00,78.0,48.0,29.86,SW,229,17.0,23.0,35,0.00,,,0.00,,2013-06-05 09:01:00,
2013-06-05 02:11:00,78.0,48.0,29.86,SW,229,17.0,23.0,35,0.00,,,0.00,,2013-06-05 09:11:00,
2013-06-05 02:22:00,78.0,48.0,29.87,SSW,205,17.0,20.0,35,0.00,,,0.00,,2013-06-05 09:22:00,
2013-06-05 02:32:00,78.0,48.0,29.87,SW,236,12.0,21.0,35,0.00,,,0.00,,2013-06-05 09:32:00,
2013-06-05 02:42:00,78.0,48.0,29.87,SW,236,12.0,21.0,35,0.00,,,0.00,,2013-06-05 09:42:00,
2013-06-05 02:53:00,77.0,47.0,29.86,SW,217,12.0,19.0,35,0.00,,,0.00,,2013-06-05 09:53:00,
2013-06-05 03:02:00,77.0,47.0,29.86,SW,232,13.0,18.0,35,0.00,,,0.00,,2013-06-05 10:02:00,
2013-06-05 03:12:00,77.0,47.0,29.86,SW,232,13.0,18.0,35,0.00,,,0.00,,2013-06-05 10:12:00,
2013-06-05 03:22:00,77.0,48.0,29.87,SW,225,15.0,19.0,36,0.00,,,0.00,,2013-06-05 10:22:00,
2013-06-05 03:33:00,77.0,47.0,29.87,SW,225,15.0,18.0,35,0.00,,,0.00,,2013-06-05 10:33:00,
2013-06-05 03:42:00,77.0,47.0,29.87,SW,225,15.0,18.0,35,0.00,,,0.00,,2013-06-05 10:42:00,
2013-06-05 03:52:00,77.0,48.0,29.87,SW,227,15.0,18.0,36,0.00,,,0.00,,2013-06-05 10:52:00,
2013-06-05 04:02:00,77.0,48.0,29.87,South,190,13.0,18.0,36,0.00,,,0.00,,2013-06-05 11:02:00,
2013-06-05 04:12:00,77.0,48.0,29.87,South,190,13.0,18.0,36,0.00,,,0.00,,2013-06-05 11:12:00,
2013-06-05 04:22:00,76.0,48.0,29.87,SW,219,12.0,20.0,37,0.00,,,0.00,,2013-06-05 11:22:00,
2013-06-05 04:32:00,76.0,48.0,29.87,SW,217,11.0,16.0,37,0.00,,,0.00,,2013-06-05 11:32:00,
2013-06-05 04:42:00,76.0,48.0,29.87,SW,217,11.0,16.0,37,0.00,,,0.00,,2013-06-05 11:42:00,
2013-06-05 04:52:00,75.0,48.0,29.88,South,191,13.0,17.0,38,0.00,,,0.00,,2013-06-05 11:52:00,
2013-06-05 05:01:00,75.0,47.0,29.88,SW,224,13.0,19.0,37,0.00,,,0.00,,2013-06-05 12:01:00,
2013-06-05 05:12:00,75.0,47.0,29.88,SW,224,13.0,19.0,37,0.00,,,0.00,,2013-06-05 12:12:00,
2013-06-05 05:22:00,75.0,48.0,29.88,SW,219,13.0,17.0,38,0.00,,,0.00,,2013-06-05 12:22:00,
2013-06-05 05:32:00,75.0,47.0,29.89,SW,229,11.0,16.0,37,0.00,,,0.00,,2013-06-05 12:32:00,
2013-06-05 05:43:00,75.0,47.0,29.89,SW,229,11.0,16.0,37,0.00,,,0.00,,2013-06-05 12:43:00,
2013-06-05 05:52:00,75.0,48.0,29.89,SW,215,12.0,16.0,38,0.00,,,0.00,,2013-06-05 12:52:00,
2013-06-05 06:02:00,75.0,47.0,29.90,SW,217,12.0,17.0,37,0.00,,,0.00,,2013-06-05 13:02:00,
2013-06-05 06:12:00,75.0,47.0,29.90,SW,217,12.0,17.0,37,0.00,,,0.00,,2013-06-05 13:12:00,
2013-06-05 06:22:00,75.0,48.0,29.91,SW,228,11.0,16.0,38,0.00,,,0.00,,2013-06-05 13:22:00,
2013-06-05 06:32:00,75.0,48.0,29.91,SW,224,11.0,14.0,38,0.00,,,0.00,,2013-06-05 13:32:00,
2013-06-05 06:42:00,75.0,48.0,29.91,SW,224,11.0,14.0,38,0.00,,,0.00,,2013-06-05 13:42:00,
2013-06-05 06:52:00,76.0,48.0,29.91,SW,230,8.0,14.0,37,0.00,,,0.00,,2013-06-05 13:52:00,
2013-06-05 07:01:00,76.0,47.0,29.91,South,184,2.0,10.0,36,0.00,,,0.00,,2013-06-05 14:01:00,
2013-06-05 07:22:00,78.0,48.0,29.92,NE,51,2.0,5.0,35,0.00,,,0.00,,2013-06-05 14:22:00,
2013-06-05 07:32:00,78.0,47.0,29.93,ENE,57,2.0,4.0,34,0.00,,,0.00,,2013-06-05 14:32:00,
2013-06-05 07:42:00,78.0,47.0,29.93,ENE,57,2.0,4.0,34,0.00,,,0.00,,2013-06-05 14:42:00,
2013-06-05 07:52:00,79.0,48.0,29.93,NE,56,0.0,0.0,34,0.00,,,0.00,,2013-06-05 14:52:00,
2013-06-05 08:02:00,80.0,49.0,29.93,ENE,57,0.0,1.0,34,0.00,,,0.00,,2013-06-05 15:02:00,
2013-06-05 08:11:00,80.0,49.0,29.93,ENE,57,0.0,1.0,34,0.00,,,0.00,,2013-06-05 15:11:00,
2013-06-05 08:22:00,80.0,48.0,29.94,NE,49,2.0,6.0,33,0.00,,,0.00,,2013-06-05 15:22:00,
2013-06-05 08:33:00,80.0,48.0,29.94,NE,49,3.0,6.0,33,0.00,,,0.00,,2013-06-05 15:33:00,
2013-06-05 08:42:00,85.0,49.0,29.95,NE,53,1.0,3.0,29,0.00,,,0.00,,2013-06-05 15:42:00,
2013-06-05 08:53:00,85.0,49.0,29.95,NE,53,1.0,3.0,29,0.00,,,0.00,,2013-06-05 15:53:00,
2013-06-05 09:03:00,88.0,51.0,29.95,NE,55,2.0,4.0,28,0.00,,,0.00,,2013-06-05 16:03:00,
2013-06-05 09:22:00,89.0,51.0,29.95,ENE,64,0.0,3.0,27,0.00,,,0.00,,2013-06-05 16:22:00,
2013-06-05 09:32:00,89.0,51.0,29.95,ENE,66,0.0,2.0,27,0.00,,,0.00,,2013-06-05 16:32:00,
2013-06-05 09:42:00,90.0,49.0,29.95,ENE,65,1.0,4.0,25,0.00,,,0.00,,2013-06-05 16:42:00,
2013-06-05 09:54:00,90.0,49.0,29.95,ENE,65,1.0,4.0,25,0.00,,,0.00,,2013-06-05 16:54:00,
2013-06-05 10:02:00,90.0,49.0,29.94,ENE,66,2.0,4.0,25,0.00,,,0.00,,2013-06-05 17:02:00,
2013-06-05 10:12:00,90.0,49.0,29.94,ENE,66,2.0,4.0,25,0.00,,,0.00,,2013-06-05 17:12:00,
2013-06-05 10:22:00,92.0,49.0,29.94,NE,44,3.0,5.0,23,0.00,,,0.00,,2013-06-05 17:22:00,
2013-06-05 10:32:00,93.0,50.0,29.94,NE,56,2.0,4.0,23,0.00,,,0.00,,2013-06-05 17:32:00,
2013-06-05 10:42:00,94.0,45.0,29.93,East,91,3.0,5.0,19,0.00,,,0.00,,2013-06-05 17:42:00,
2013-06-05 10:52:00,94.0,45.0,29.93,East,91,3.0,5.0,19,0.00,,,0.00,,2013-06-05 17:52:00,
2013-06-05 11:02:00,94.0,45.0,29.93,East,100,4.0,6.0,19,0.00,,,0.00,,2013-06-05 18:02:00,
2013-06-05 11:12:00,94.0,45.0,29.93,East,100,4.0,6.0,19,0.00,,,0.00,,2013-06-05 18:12:00,
2013-06-05 11:22:00,96.0,46.0,29.93,East,84,3.0,6.0,18,0.00,,,0.00,,2013-06-05 18:22:00,
2013-06-05 11:32:00,97.0,45.0,29.93,ENE,63,5.0,7.0,17,0.00,,,0.00,,2013-06-05 18:32:00,
2013-06-05 11:42:00,98.0,46.0,29.93,SE,134,1.0,7.0,17,0.00,,,0.00,,2013-06-05 18:42:00,
2013-06-05 11:52:00,98.0,46.0,29.93,SE,134,1.0,7.0,17,0.00,,,0.00,,2013-06-05 18:52:00,
2013-06-05 12:02:00,99.0,43.0,29.92,East,90,3.0,10.0,15,0.00,,,0.00,,2013-06-05 19:02:00,
2013-06-05 12:12:00,99.0,43.0,29.92,East,90,3.0,10.0,15,0.00,,,0.00,,2013-06-05 19:12:00,
2013-06-05 12:23:00,100.0,40.0,29.92,East,86,7.0,14.0,13,0.00,,,0.00,,2013-06-05 19:23:00,
2013-06-05 12:32:00,100.0,40.0,29.91,NE,47,8.0,14.0,13,0.00,,,0.00,,2013-06-05 19:32:00,
2013-06-05 12:42:00,100.0,40.0,29.91,NE,47,8.0,14.0,13,0.00,,,0.00,,2013-06-05 19:42:00,
2013-06-05 12:52:00,100.0,38.0,29.91,East,96,7.0,17.0,12,0.00,,,0.00,,2013-06-05 19:52:00,
2013-06-05 13:02:00,101.0,41.0,29.91,NE,41,4.0,14.0,13,0.00,,,0.00,,2013-06-05 20:02:00,
2013-06-05 13:12:00,102.0,42.0,29.90,NE,49,8.0,14.0,13,0.00,,,0.00,,2013-06-05 20:12:00,
2013-06-05 13:22:00,102.0,42.0,29.90,NE,49,8.0,14.0,13,0.00,,,0.00,,2013-06-05 20:22:00,
2013-06-05 13:32:00,102.0,40.0,29.90,East,86,6.0,13.0,12,0.00,,,0.00,,2013-06-05 20:32:00,
2013-06-05 13:42:00,102.0,40.0,29.88,ESE,111,2.0,9.0,12,0.00,,,0.00,,2013-06-05 20:42:00,
2013-06-05 13:52:00,102.0,40.0,29.88,ESE,111,2.0,9.0,12,0.00,,,0.00,,2013-06-05 20:52:00,
2013-06-05 14:02:00,103.0,41.0,29.88,ENE,76,1.0,11.0,12,0.00,,,0.00,,2013-06-05 21:02:00,
2013-06-05 14:11:00,104.0,39.0,29.87,ESE,113,3.0,6.0,11,0.00,,,0.00,,2013-06-05 21:11:00,
2013-06-05 14:22:00,104.0,39.0,29.87,ESE,113,3.0,6.0,11,0.00,,,0.00,,2013-06-05 21:22:00,
2013-06-05 14:33:00,104.0,39.0,29.87,SE,140,2.0,6.0,11,0.00,,,0.00,,2013-06-05 21:33:00,
2013-06-05 14:43:00,106.0,41.0,29.86,SE,128,4.0,7.0,11,0.00,,,0.00,,2013-06-05 21:43:00,
2013-06-05 14:53:00,106.0,41.0,29.86,SE,128,4.0,7.0,11,0.00,,,0.00,,2013-06-05 21:53:00,
2013-06-05 15:02:00,106.0,41.0,29.86,SE,128,4.0,7.0,11,0.00,,,0.00,,2013-06-05 22:02:00,
2013-06-05 15:22:00,107.0,41.0,29.85,WSW,246,2.0,7.0,11,0.00,,,0.00,,2013-06-05 22:22:00,
2013-06-05 15:32:00,107.0,41.0,29.85,WSW,246,2.0,7.0,11,0.00,,,0.00,,2013-06-05 22:32:00,
2013-06-05 15:42:00,107.0,39.0,29.84,West,261,3.0,12.0,10,0.00,,,0.00,,2013-06-05 22:42:00,
2013-06-05 15:52:00,107.0,39.0,29.84,West,261,3.0,12.0,10,0.00,,,0.00,,2013-06-05 22:52:00,
2013-06-05 16:02:00,108.0,40.0,29.83,North,360,5.0,13.0,10,0.00,,,0.00,,2013-06-05 23:02:00,
2013-06-05 16:12:00,107.0,39.0,29.83,SSE,156,6.0,9.0,10,0.00,,,0.00,,2013-06-05 23:12:00,
2013-06-05 16:22:00,107.0,39.0,29.83,SSE,156,6.0,9.0,10,0.00,,,0.00,,2013-06-05 23:22:00,
2013-06-05 16:32:00,107.0,36.0,29.82,SSW,201,0.0,9.0,9,0.00,,,0.00,,2013-06-05 23:32:00,
2013-06-05 16:42:00,107.0,36.0,29.82,SSW,201,0.0,9.0,9,0.00,,,0.00,,2013-06-05 23:42:00,
2013-06-05 16:53:00,108.0,40.0,29.81,WSW,253,3.0,6.0,10,0.00,,,0.00,,2013-06-05 23:53:00,
2013-06-05 17:02:00,108.0,40.0,29.81,NNW,346,8.0,12.0,10,0.00,,,0.00,,2013-06-06 00:02:00,
2013-06-05 17:22:00,108.0,40.0,29.80,ENE,58,6.0,9.0,10,0.00,,,0.00,,2013-06-06 00:22:00,
2013-06-05 17:32:00,107.0,39.0,29.80,NE,51,2.0,11.0,10,0.00,,,0.00,,2013-06-06 00:32:00,
2013-06-05 17:42:00,107.0,39.0,29.80,NE,51,2.0,11.0,10,0.00,,,0.00,,2013-06-06 00:42:00,
2013-06-05 17:52:00,106.0,38.0,29.79,South,179,3.0,5.0,10,0.00,,,0.00,,2013-06-06 00:52:00,
2013-06-05 18:02:00,105.0,40.0,29.79,South,171,10.0,19.0,11,0.00,,,0.00,,2013-06-06 01:02:00,
2013-06-05 18:22:00,104.0,41.0,29.79,SSW,200,7.0,16.0,12,0.00,,,0.00,,2013-06-06 01:22:00,
2013-06-05 18:32:00,103.0,41.0,29.79,SSE,165,10.0,21.0,12,0.00,,,0.00,,2013-06-06 01:32:00,
2013-06-05 18:42:00,102.0,40.0,29.79,SSW,203,11.0,19.0,12,0.00,,,0.00,,2013-06-06 01:42:00,
2013-06-05 18:52:00,102.0,40.0,29.79,SSW,203,11.0,19.0,12,0.00,,,0.00,,2013-06-06 01:52:00,
2013-06-05 19:01:00,102.0,40.0,29.79,SSW,198,13.0,21.0,12,0.00,,,0.00,,2013-06-06 02:01:00,
2013-06-05 19:22:00,100.0,42.0,29.79,SW,226,12.0,23.0,14,0.00,,,0.00,,2013-06-06 02:22:00,
2013-06-05 19:32:00,99.0,45.0,29.80,SW,217,18.0,25.0,16,0.00,,,0.00,,2013-06-06 02:32:00,
2013-06-05 19:42:00,99.0,45.0,29.80,SW,217,18.0,25.0,16,0.00,,,0.00,,2013-06-06 02:42:00,
2013-06-05 19:52:00,99.0,45.0,29.80,SW,217,18.0,25.0,16,0.00,,,0.00,,2013-06-06 02:52:00,
2013-06-05 20:02:00,96.0,44.0,29.80,SW,227,15.0,23.0,17,0.00,,,0.00,,2013-06-06 03:02:00,
2013-06-05 20:22:00,95.0,48.0,29.81,West,259,11.0,15.0,20,0.00,,,0.00,,2013-06-06 03:22:00,
2013-06-05 20:33:00,94.0,47.0,29.81,WSW,244,8.0,14.0,20,0.00,,,0.00,,2013-06-06 03:33:00,
2013-06-05 20:43:00,94.0,47.0,29.81,WSW,244,8.0,14.0,20,0.00,,,0.00,,2013-06-06 03:43:00,
2013-06-05 20:52:00,92.0,48.0,29.82,WSW,255,8.0,17.0,22,0.00,,,0.00,,2013-06-06 03:52:00,
2013-06-05 21:02:00,92.0,48.0,29.82,WSW,257,10.0,17.0,22,0.00,,,0.00,,2013-06-06 04:02:00,
2013-06-05 21:13:00,92.0,48.0,29.82,WSW,257,10.0,17.0,22,0.00,,,0.00,,2013-06-06 04:13:00,
2013-06-05 21:22:00,91.0,47.0,29.83,SW,230,12.0,19.0,22,0.00,,,0.00,,2013-06-06 04:22:00,
2013-06-05 21:33:00,91.0,47.0,29.83,WSW,242,17.0,22.0,22,0.00,,,0.00,,2013-06-06 04:33:00,
2013-06-05 21:42:00,90.0,48.0,29.84,WSW,243,14.0,21.0,24,0.00,,,0.00,,2013-06-06 04:42:00,
2013-06-05 21:53:00,90.0,48.0,29.84,WSW,243,14.0,21.0,24,0.00,,,0.00,,2013-06-06 04:53:00,
2013-06-05 22:02:00,89.0,47.0,29.84,SW,222,14.0,21.0,24,0.00,,,0.00,,2013-06-06 05:02:00,
2013-06-05 22:12:00,89.0,47.0,29.84,SW,222,14.0,21.0,24,0.00,,,0.00,,2013-06-06 05:12:00,
2013-06-05 22:22:00,89.0,47.0,29.85,SSW,209,12.0,19.0,24,0.00,,,0.00,,2013-06-06 05:22:00,
2013-06-05 22:32:00,88.0,46.0,29.85,SSW,202,9.0,18.0,23,0.00,,,0.00,,2013-06-06 05:32:00,
2013-06-05 22:42:00,88.0,46.0,29.85,SSW,202,9.0,18.0,23,0.00,,,0.00,,2013-06-06 05:42:00,
2013-06-05 22:52:00,88.0,46.0,29.85,SW,227,12.0,19.0,23,0.00,,,0.00,,2013-06-06 05:52:00,
2013-06-05 23:01:00,88.0,46.0,29.85,SW,214,13.0,21.0,23,0.00,,,0.00,,2013-06-06 06:01:00,
2013-06-05 23:11:00,88.0,46.0,29.85,SW,214,13.0,21.0,23,0.00,,,0.00,,2013-06-06 06:11:00,
2013-06-05 23:22:00,87.0,47.0,29.85,SSW,213,16.0,23.0,25,0.00,,,0.00,,2013-06-06 06:22:00,
2013-06-05 23:32:00,86.0,48.0,29.85,SW,216,14.0,21.0,27,0.00,,,0.00,,2013-06-06 06:32:00,
2013-06-05 23:42:00,86.0,48.0,29.85,SW,216,14.0,21.0,27,0.00,,,0.00,,2013-06-06 06:42:00,
2013-06-05 23:52:00,85.0,47.0,29.85,SW,225,13.0,20.0,27,0.00,,,0.00,,2013-06-06 06:52:00,